DECAYED

STARLINK-3313, 50157 (Decayed)

Orbit data source: Space-Track

STARLINK-3313, 50157 was a payload satellite owned by SpaceX/Seattle (US) in LEO that was launched on Sat, 18 Dec 2021 UTC via an FALCON 9 launch vehicle from the Air Force Western Test Range (AFWTR). Payload-class satellites include a variety of spacecraft equipped with specific instruments for various scientific and technological missions. These include communications satellites like Starlink; space stations such as the ISS; scientific satellites like the Hubble; Earth observation satellites from companies like Planet Labs, Umbra, and HawkEye 360; GPS; miniature CubeSats for education and research; and military/defense satellites.

Not visible in the next 10 days
Identifier
50157, 2021-125B
Orbit
Decayed
Country
Flag of USUS
Related business
Manufacturer
SpaceX/Seattle
Mission
Decayed Commercial Communications
Bus & Motor
STARLINK, Unknown motor
Mass
290 kg wet, ~270 kg dry
Launch date (UTC)
2021-12-18 (5 years ago)
Launch vehicle
FALCON 9
Launch site
Air Force Western Test Range (AFWTR)
Object type
Payload
Rocket body
Debris
Shape & HBR
Box + 1 Pan, 10.1 m
Radar Cross Section
13.562 m², Large (>1 m²)

Expand to show TLE details & history
Last TLE update: 7 months ago

TLE from 7 months ago
0 STARLINK-3313
1 50157U 21125B   25311.22823652  .10192764  12566-4  20660-3 0  9992
2 50157  53.1829  40.9068 0004570 290.0212  70.0347 16.46844536218680
Epoch: 2025-11-07T05:28Z
TLE epoch observation values (Epoch: 2025-11-07T05:28:39.635Z)
Latitude
-0.00002°
Longitude
-87.93357°
Altitude
147.588 km
Speed
7.82 km/s
True Right ascension
02h 43m 37s
True Declination
0° 00' 00"
Sunlit
Object was in full shadow at epoch
Visualization orbit readout
Latitude
Unknown
Longitude
Unknown
Altitude
Unknown
Speed
Unknown
Apparent Right ascension
Unknown
Apparent Declination
Unknown
Sunlit
N/A
Visualization observer readout
Local Sidereal Time
23:59:56
Azimuth
Unknown
Elevation
Unknown
Doppler factor
Unknown
Orbital elements
Apogee altitude
150.906 km
Perigee altitude
144.941 km
Semi-major axis
6,526.06 km
Eccentricity
0.00046
Inclination
53.1829°
RAAN
40.9068°
Arg. of periapsis
290.0212°
True anomaly
70.08393°
Mean anomaly
70.0347°
Eccentric anomaly
70.05931°
Mean motion
4.11686 °/min
Orbital period
87.45 mins
BSTAR
0.0002066
Loading maneuver chart data...
Computing Atmospheric mass density...

Documentation

Showing up to 5 results
|